Location: Bremen
(53.0793°N, 8.8017°E)
Time: 21:06:56
(UTC+02:00)

Envisat - Pass Details

Date: 27 February 2024
Orbit: 762 x 764 km, 98.3° (Epoch: 13 April)

Event Time Altitude Azimuth Distance (km) Brightness Sun altitude
Rises 06:31:20 0° 3° (N) 3,245 6.3 -7.7°
Reaches altitude 10° 06:36:08 10° 323° (NW) 2,312 5.1 -7.0°
Maximum altitude 06:36:44 10° 316° (NW) 2,297 5.0 -6.9°
Drops below altitude 10° 06:37:21 10° 309° (NW) 2,311 5.0 -6.8°
Enters shadow 06:39:19 - 288° (WNW) 2,541 5.1 -6.6°
